�������l�o���
Date,Time,MP-1(��Sv/h),MP-2(��Sv/h),MP-3(��Sv/h),MP-4(��Sv/h),MP-5(��Sv/h),MP-6(��Sv/h),MP-7(��Sv/h),MP-8(��Sv/h),����,����(m/s),���J
2023/08/15,00:00,0.532,0.797,0.490,0.967,0.707,0.320,0.566,0.529,��쓌,5.0,��
2023/08/15,00:10,0.532,0.798,0.490,0.968,0.709,0.320,0.567,0.529,��쓌,4.8,��
2023/08/15,00:20,0.533,0.798,0.490,0.970,0.705,0.319,0.567,0.527,��쓌,4.9,��
2023/08/15,00:30,0.532,0.795,0.490,0.969,0.706,0.318,0.566,0.525,��,4.0,�L
2023/08/15,00:40,0.526,0.788,0.484,0.964,0.693,0.316,0.561,0.523,��쓌,8.2,�L
2023/08/15,00:50,0.526,0.787,0.484,0.961,0.694,0.315,0.562,0.524,��쓌,6.8,�L
2023/08/15,01:00,0.525,0.786,0.485,0.964,0.697,0.317,0.562,0.524,��쓌,7.0,�L
2023/08/15,01:10,0.524,0.785,0.485,0.962,0.698,0.317,0.563,0.523,��,6.2,�L
2023/08/15,01:20,0.524,0.786,0.484,0.961,0.696,0.318,0.562,0.525,��,5.6,��
2023/08/15,01:30,0.526,0.786,0.485,0.965,0.697,0.318,0.562,0.524,��쓌,6.2,��
2023/08/15,01:40,0.525,0.787,0.486,0.964,0.695,0.317,0.562,0.526,��,5.2,��
2023/08/15,01:50,0.524,0.787,0.486,0.963,0.697,0.317,0.564,0.525,��,4.2,��
2023/08/15,02:00,0.525,0.786,0.485,0.963,0.698,0.317,0.562,0.523,��,4.5,��
2023/08/15,02:10,0.524,0.788,0.484,0.961,0.698,0.317,0.562,0.523,��쓌,4.0,�L
2023/08/15,02:20,0.525,0.787,0.484,0.968,0.698,0.317,0.563,0.524,��쓌,3.8,��
2023/08/15,02:30,0.526,0.787,0.483,0.963,0.698,0.317,0.562,0.525,��쓌,3.3,�L
2023/08/15,02:40,0.524,0.786,0.485,0.963,0.697,0.316,0.563,0.523,�쓌,2.8,�L
2023/08/15,02:50,0.522,0.785,0.485,0.964,0.698,0.317,0.562,0.524,��쓌,2.2,��
2023/08/15,03:00,0.520,0.787,0.484,0.965,0.699,0.318,0.563,0.524,��쓌,2.3,��
2023/08/15,03:10,0.523,0.785,0.484,0.963,0.699,0.316,0.562,0.526,��쓌,1.7,��
2023/08/15,03:20,0.522,0.785,0.486,0.963,0.697,0.318,0.563,0.525,�쓌,2.3,�L
2023/08/15,03:30,0.521,0.784,0.483,0.963,0.698,0.318,0.561,0.523,��쓌,1.7,�L
2023/08/15,03:40,0.520,0.783,0.482,0.960,0.697,0.318,0.562,0.524,��,0.9,��
2023/08/15,03:50,0.522,0.783,0.483,0.960,0.698,0.317,0.563,0.524,��,1.1,��
2023/08/15,04:00,0.520,0.782,0.484,0.961,0.696,0.316,0.562,0.523,���쐼,0.6,��
2023/08/15,04:10,0.520,0.783,0.482,0.960,0.699,0.318,0.562,0.525,-,CALM,��
2023/08/15,04:20,0.522,0.785,0.483,0.961,0.699,0.318,0.561,0.522,-,CALM,��
2023/08/15,04:30,0.521,0.784,0.484,0.962,0.698,0.319,0.563,0.524,��,0.6,��
2023/08/15,04:40,0.522,0.785,0.484,0.963,0.699,0.318,0.563,0.524,-,CALM,��
2023/08/15,04:50,0.523,0.785,0.483,0.963,0.700,0.318,0.562,0.524,�쐼,0.6,��
2023/08/15,05:00,0.524,0.786,0.484,0.963,0.698,0.319,0.563,0.523,�쐼,1.2,��
2023/08/15,05:10,0.522,0.787,0.485,0.965,0.700,0.318,0.562,0.523,��쐼,1.5,��
2023/08/15,05:20,0.524,0.787,0.485,0.964,0.698,0.320,0.564,0.523,��,2.0,��
2023/08/15,05:30,0.523,0.785,0.484,0.965,0.700,0.317,0.563,0.524,��,2.3,��
2023/08/15,05:40,0.523,0.788,0.485,0.965,0.699,0.319,0.563,0.524,��,2.6,��
2023/08/15,05:50,0.523,0.787,0.483,0.964,0.699,0.319,0.564,0.523,��쐼,1.7,��
2023/08/15,06:00,0.523,0.784,0.485,0.962,0.701,0.318,0.564,0.524,��,2.2,��
2023/08/15,06:10,0.525,0.787,0.485,0.962,0.699,0.317,0.563,0.524,��쓌,2.0,��
2023/08/15,06:20,0.524,0.788,0.484,0.966,0.701,0.317,0.562,0.524,��쓌,1.4,��
2023/08/15,06:30,0.523,0.789,0.486,0.964,0.700,0.318,0.565,0.525,��쐼,0.9,��
2023/08/15,06:40,0.524,0.788,0.485,0.962,0.697,0.318,0.564,0.524,��쓌,2.6,��
2023/08/15,06:50,0.523,0.787,0.484,0.964,0.699,0.319,0.564,0.525,��쓌,2.6,��
2023/08/15,07:00,0.525,0.786,0.485,0.962,0.701,0.318,0.565,0.524,��쓌,3.5,��
2023/08/15,07:10,0.523,0.787,0.485,0.964,0.700,0.318,0.564,0.523,��쓌,4.5,��
2023/08/15,07:20,0.525,0.786,0.486,0.965,0.700,0.319,0.564,0.523,�쓌,3.9,��
2023/08/15,07:30,0.525,0.787,0.486,0.963,0.700,0.318,0.563,0.523,��쓌,3.5,��
2023/08/15,07:40,0.525,0.788,0.486,0.965,0.698,0.317,0.565,0.524,�쓌,2.9,��
2023/08/15,07:50,0.526,0.788,0.486,0.966,0.700,0.319,0.564,0.524,�쓌,3.6,��
2023/08/15,08:00,0.525,0.788,0.484,0.964,0.699,0.319,0.564,0.524,�쓌,3.4,��
2023/08/15,08:10,0.526,0.788,0.487,0.962,0.700,0.319,0.565,0.526,�쓌,3.5,��
2023/08/15,08:20,0.526,0.789,0.485,0.963,0.700,0.318,0.566,0.527,�쓌,3.8,�L
2023/08/15,08:30,0.525,0.790,0.485,0.965,0.701,0.318,0.565,0.527,�쓌,3.5,�L
2023/08/15,08:40,0.527,0.789,0.486,0.964,0.699,0.317,0.565,0.527,�쓌,5.4,��
2023/08/15,08:50,0.525,0.789,0.487,0.965,0.702,0.319,0.567,0.525,��쓌,6.4,��
2023/08/15,09:00,0.526,0.789,0.485,0.967,0.701,0.318,0.566,0.525,��쓌,5.7,��
2023/08/15,09:10,0.528,0.791,0.487,0.965,0.702,0.318,0.567,0.525,��쓌,7.0,��
2023/08/15,09:20,0.527,0.791,0.487,0.966,0.700,0.318,0.567,0.525,��쓌,7.4,��
2023/08/15,09:30,0.528,0.792,0.487,0.966,0.704,0.317,0.565,0.525,��쓌,7.1,��
2023/08/15,09:40,0.528,0.791,0.488,0.967,0.703,0.318,0.567,0.524,�쓌,6.3,��
2023/08/15,09:50,0.527,0.791,0.487,0.967,0.702,0.317,0.566,0.526,�쓌,6.1,��
2023/08/15,10:00,0.527,0.792,0.486,0.967,0.703,0.318,0.566,0.525,�쓌,7.8,��
2023/08/15,10:10,0.529,0.793,0.487,0.966,0.705,0.318,0.566,0.526,�쓌,7.1,��
2023/08/15,10:20,0.529,0.792,0.488,0.968,0.704,0.317,0.567,0.526,��쓌,7.2,��
2023/08/15,10:30,0.528,0.794,0.489,0.966,0.703,0.319,0.566,0.525,�쓌,7.2,��
2023/08/15,10:40,0.529,0.794,0.489,0.967,0.704,0.318,0.567,0.525,��쓌,8.6,��
2023/08/15,10:50,0.529,0.794,0.487,0.967,0.704,0.318,0.566,0.525,��쓌,9.2,�L
2023/08/15,11:00,0.529,0.795,0.489,0.967,0.706,0.317,0.566,0.525,��쓌,9.1,��
2023/08/15,11:10,0.529,0.796,0.488,0.968,0.706,0.318,0.567,0.526,��쓌,9.7,��
2023/08/15,11:20,0.531,0.795,0.489,0.967,0.707,0.318,0.567,0.526,��쓌,9.2,�L
2023/08/15,11:30,0.529,0.798,0.490,0.967,0.706,0.319,0.566,0.526,��쓌,9.5,��
2023/08/15,11:40,0.531,0.797,0.489,0.968,0.707,0.319,0.567,0.527,��쓌,9.0,��
2023/08/15,11:50,0.530,0.797,0.490,0.969,0.707,0.319,0.567,0.528,��,7.2,�L
2023/08/15,12:00,0.530,0.798,0.492,0.969,0.706,0.319,0.567,0.526,��쓌,8.5,�L
2023/08/15,12:10,0.530,0.795,0.491,0.968,0.707,0.321,0.569,0.526,��쓌,7.6,��
2023/08/15,12:20,0.531,0.797,0.490,0.968,0.706,0.319,0.567,0.528,��쓌,9.8,�L
2023/08/15,12:30,0.531,0.798,0.493,0.970,0.709,0.317,0.566,0.526,��,7.2,�L
2023/08/15,12:40,0.531,0.797,0.490,0.968,0.708,0.318,0.567,0.527,��쓌,9.3,�L
2023/08/15,12:50,0.531,0.796,0.491,0.969,0.708,0.318,0.566,0.527,��쓌,10.9,��
2023/08/15,13:00,0.532,0.798,0.491,0.972,0.706,0.317,0.567,0.528,��쓌,12.2,��
2023/08/15,13:10,0.533,0.801,0.490,0.972,0.710,0.319,0.566,0.526,��쓌,10.6,��
2023/08/15,13:20,0.530,0.798,0.490,0.971,0.707,0.318,0.567,0.527,��쓌,10.5,��
2023/08/15,13:30,0.533,0.799,0.490,0.970,0.708,0.318,0.567,0.527,��쓌,8.0,��
2023/08/15,13:40,0.531,0.800,0.491,0.971,0.709,0.318,0.568,0.528,��쓌,6.2,��
2023/08/15,13:50,0.532,0.800,0.493,0.970,0.710,0.320,0.567,0.529,��,6.3,��
2023/08/15,14:00,0.532,0.801,0.491,0.971,0.712,0.320,0.566,0.528,��쓌,5.3,��
2023/08/15,14:10,0.533,0.801,0.492,0.972,0.711,0.320,0.568,0.527,��쓌,7.4,��
2023/08/15,14:20,0.531,0.800,0.493,0.973,0.712,0.320,0.567,0.528,��쓌,7.8,��
2023/08/15,14:30,0.533,0.800,0.490,0.973,0.710,0.320,0.566,0.527,��쓌,9.8,��
2023/08/15,14:40,0.532,0.800,0.493,0.972,0.714,0.319,0.566,0.528,��쓌,9.2,�L
2023/08/15,14:50,0.530,0.801,0.492,0.972,0.711,0.319,0.566,0.526,��,7.3,�L
2023/08/15,15:00,0.530,0.796,0.491,0.972,0.707,0.318,0.566,0.526,��,6.4,�L
2023/08/15,15:10,0.526,0.797,0.491,0.971,0.708,0.317,0.564,0.525,��,6.6,�L
2023/08/15,15:20,0.528,0.796,0.490,0.971,0.707,0.318,0.564,0.525,��,4.9,��
2023/08/15,15:30,0.528,0.797,0.490,0.969,0.710,0.319,0.564,0.525,��,4.6,��
2023/08/15,15:40,0.527,0.799,0.489,0.970,0.708,0.318,0.565,0.526,��,4.1,��
2023/08/15,15:50,0.527,0.797,0.490,0.971,0.708,0.319,0.565,0.526,��,4.8,��
2023/08/15,16:00,0.529,0.799,0.491,0.970,0.708,0.319,0.565,0.526,��,5.2,��
2023/08/15,16:10,0.528,0.798,0.491,0.970,0.708,0.320,0.565,0.525,��쓌,3.3,��
2023/08/15,16:20,0.527,0.800,0.491,0.974,0.708,0.320,0.566,0.525,��,3.0,��
2023/08/15,16:30,0.529,0.797,0.490,0.973,0.707,0.319,0.567,0.525,��,3.7,�L
2023/08/15,16:40,0.528,0.797,0.491,0.973,0.707,0.319,0.566,0.524,��쐼,4.7,�L
2023/08/15,16:50,0.528,0.797,0.489,0.970,0.708,0.319,0.566,0.525,��쐼,3.7,�L
2023/08/15,17:00,0.528,0.797,0.491,0.973,0.708,0.318,0.565,0.526,��쐼,2.3,�L
2023/08/15,17:10,0.527,0.799,0.488,0.970,0.705,0.318,0.565,0.527,��,1.7,�L
2023/08/15,17:20,0.528,0.798,0.489,0.968,0.703,0.317,0.565,0.527,��,1.7,�L
2023/08/15,17:30,0.527,0.798,0.489,0.968,0.701,0.318,0.565,0.526,���쐼,2.0,�L
2023/08/15,17:40,0.528,0.793,0.488,0.967,0.697,0.318,0.565,0.526,��,2.2,�L
2023/08/15,17:50,0.527,0.789,0.485,0.960,0.689,0.316,0.562,0.525,��쓌,6.1,�L
2023/08/15,18:00,0.518,0.770,0.482,0.958,0.691,0.316,0.563,0.526,��,3.4,�L
2023/08/15,18:10,0.518,0.774,0.483,0.959,0.691,0.316,0.562,0.525,��,4.8,��
2023/08/15,18:20,0.518,0.777,0.482,0.960,0.694,0.317,0.564,0.525,��,4.6,��
2023/08/15,18:30,0.519,0.776,0.482,0.959,0.692,0.315,0.564,0.525,��쓌,5.3,�L
2023/08/15,18:40,0.520,0.777,0.482,0.960,0.693,0.316,0.564,0.525,��쓌,5.8,��
2023/08/15,18:50,0.520,0.779,0.482,0.957,0.694,0.315,0.564,0.526,��쓌,6.2,��
2023/08/15,19:00,0.519,0.779,0.483,0.959,0.693,0.317,0.563,0.525,��쓌,8.4,��
2023/08/15,19:10,0.520,0.777,0.483,0.959,0.693,0.316,0.564,0.523,��쓌,8.2,��
2023/08/15,19:20,0.519,0.778,0.481,0.961,0.694,0.316,0.561,0.526,��,7.8,�L
2023/08/15,19:30,0.520,0.781,0.484,0.961,0.694,0.316,0.565,0.525,��,7.3,��
2023/08/15,19:40,0.520,0.779,0.482,0.960,0.694,0.317,0.564,0.525,��쓌,7.9,��
2023/08/15,19:50,0.521,0.781,0.484,0.961,0.695,0.316,0.565,0.525,��,7.0,��
2023/08/15,20:00,0.520,0.780,0.483,0.958,0.695,0.317,0.566,0.525,��쓌,7.9,�L
2023/08/15,20:10,0.520,0.781,0.483,0.958,0.695,0.317,0.566,0.527,��쓌,6.7,��
2023/08/15,20:20,0.520,0.779,0.482,0.960,0.692,0.316,0.565,0.525,��쓌,5.4,�L
2023/08/15,20:30,0.519,0.779,0.483,0.959,0.692,0.314,0.565,0.525,��쓌,5.4,�L
2023/08/15,20:40,0.520,0.779,0.483,0.959,0.691,0.316,0.566,0.525,��쓌,8.1,��
2023/08/15,20:50,0.522,0.779,0.482,0.961,0.691,0.315,0.563,0.526,��쓌,8.3,�L
2023/08/15,21:00,0.522,0.780,0.481,0.958,0.690,0.315,0.564,0.528,��,8.5,�L
2023/08/15,21:10,0.521,0.779,0.482,0.959,0.692,0.315,0.565,0.526,��쓌,7.5,�L
2023/08/15,21:20,0.521,0.781,0.483,0.959,0.692,0.316,0.565,0.526,��,7.7,�L
2023/08/15,21:30,0.522,0.780,0.483,0.959,0.692,0.316,0.567,0.526,��,6.5,��
2023/08/15,21:40,0.521,0.780,0.481,0.959,0.692,0.315,0.565,0.528,��,7.3,��
2023/08/15,21:50,0.520,0.781,0.483,0.959,0.690,0.316,0.565,0.526,��,6.8,��
2023/08/15,22:00,0.521,0.781,0.482,0.960,0.691,0.317,0.565,0.526,��,7.6,��
2023/08/15,22:10,0.522,0.780,0.482,0.959,0.691,0.317,0.565,0.526,��,8.1,��
2023/08/15,22:20,0.522,0.781,0.482,0.959,0.692,0.317,0.564,0.528,��,7.8,��
2023/08/15,22:30,0.520,0.781,0.483,0.960,0.691,0.317,0.565,0.527,��,7.1,��
2023/08/15,22:40,0.523,0.780,0.483,0.959,0.691,0.317,0.566,0.526,��,7.2,��
2023/08/15,22:50,0.522,0.782,0.483,0.958,0.693,0.317,0.566,0.528,��,6.6,��
2023/08/15,23:00,0.522,0.782,0.483,0.959,0.694,0.319,0.565,0.526,��,7.5,��
2023/08/15,23:10,0.520,0.781,0.483,0.960,0.693,0.318,0.566,0.525,��,7.6,��
2023/08/15,23:20,0.520,0.784,0.482,0.959,0.693,0.318,0.565,0.526,��,8.2,��
2023/08/15,23:30,0.521,0.782,0.483,0.960,0.692,0.317,0.565,0.526,��,9.6,��
2023/08/15,23:40,0.521,0.783,0.484,0.959,0.694,0.317,0.566,0.527,��,9.5,��
2023/08/15,23:50,0.523,0.784,0.484,0.961,0.695,0.316,0.566,0.524,��,9.2,��
